COSMOS 1844

Last updated on Wed Sep 17 2025 00:02:14 GMT+0000 (Coordinated Universal Time)

1 17973U 87041A 25259.58051844 .00000272 00000+0 16615-3 0 9997 2 17973 70.8995 41.3999 0032888 283.0283 76.7168 14.14491469978964
UTC large
Height (km)
Speed (km/s)
/
Latitude / Longitude
Inclination (degrees)
Orbital Period (minutes)
Azimuth
Elevation
Range (km)
Doppler Factor

Next 0 passes for location: London (51.5072 / 0.1276)

Sorry there are no passes over London.